Location: Góry Miechowskie
(50.3599°N, 20.1803°E)
Time: 16:47:34
(UTC+00:00)

A-11 Canister half - Pass Details

Date: 13 September 2024
Orbit: 1515 x 1684 km, 47.2° (Epoch: 07 October)

Event Time Altitude Azimuth Distance (km) Brightness Sun altitude
Rises 23:22:28 0° 286° (WNW) 4,663 11.6 -35.4°
Reaches altitude 10° 23:25:40 10° 280° (W) 3,678 10.9 -35.2°
Enters shadow 23:27:09 16° 276° (W) 3,243 10.6 -35.2°
Maximum altitude 23:34:12 44° 213° (SSW) 2,007 - -34.8°
Drops below altitude 10° 23:42:51 10° 145° (SE) 3,724 - -34.4°
Sets 23:46:06 0° 139° (SE) 4,726 - -34.2°
